| time (UTC) | temp C | wind direction | speed KPH | gust KPH | rain 1hr cm | rain 24hr cm | rain mn cm | humidity % | barometer mb |
| 20260506140500 | 23 | 132 | 6.4 | 6.4 | 0.00 | 0.00 | 0.00 | 92 | 1011.5 |
| 20260506135957 | 23 | 229 | 8.0 | 8.0 | 0.00 | 0.00 | 0.00 | 92 | 1011.7 |
| 20260506135454 | 23 | 263 | 1.6 | 4.8 | 0.00 | 0.00 | 0.00 | 93 | 1011.7 |
| 20260506134950 | 23 | 202 | 3.2 | 4.8 | 0.00 | 0.00 | 0.00 | 93 | 1011.2 |
| 20260506134446 | 23 | 111 | 0.0 | 4.8 | 0.00 | 0.00 | 0.00 | 93 | 1010.5 |
| 20260506133943 | 23 | 246 | 0.0 | 6.4 | 0.00 | 0.00 | 0.00 | 94 | 1010.7 |
| 20260506133440 | 23 | 185 | 1.6 | 4.8 | 0.00 | 0.00 | 0.00 | 94 | 1010.6 |
| 20260506132937 | 23 | 134 | 6.4 | 6.4 | 0.00 | 0.00 | 0.00 | 94 | 1010.7 |
| 20260506132434 | 23 | 245 | 0.0 | 4.8 | 0.00 | 0.00 | 0.00 | 94 | 1010.6 |
| 20260506131932 | 23 | 162 | 3.2 | 6.4 | 0.00 | 0.00 | 0.00 | 94 | 1010.6 |
| 20260506131428 | 23 | 237 | 3.2 | 3.2 | 0.00 | 0.00 | 0.00 | 94 | 1010.6 |
| 20260506130925 | 23 | 180 | 0.0 | 4.8 | 0.00 | 0.00 | 0.00 | 94 | 1010.6 |
| 20260506130421 | 23 | 81 | 0.0 | 6.4 | 0.00 | 0.00 | 0.00 | 94 | 1010.4 |
| 20260506125920 | 23 | 245 | 3.2 | 6.4 | 0.00 | 0.00 | 0.00 | 94 | 1010.4 |
| 20260506125418 | 23 | 124 | 0.0 | 6.4 | 0.00 | 0.00 | 0.00 | 94 | 1010.3 |
| 20260506124916 | 23 | 270 | 0.0 | 1.6 | 0.00 | 0.00 | 0.00 | 94 | 1010.2 |
| 20260506124413 | 23 | 84 | 4.8 | 4.8 | 0.00 | 0.00 | 0.00 | 95 | 1010.4 |
| 20260506123911 | 22 | 117 | 4.8 | 6.4 | 0.00 | 0.00 | 0.00 | 94 | 1010.3 |
| 20260506123408 | 23 | 74 | 0.0 | 3.2 | 0.00 | 0.00 | 0.00 | 94 | 1010.2 |
| 20260506122906 | 23 | 166 | 0.0 | 1.6 | 0.00 | 0.00 | 0.00 | 94 | 1010.4 |
| 20260506122402 | 23 | 120 | 0.0 | 3.2 | 0.00 | 0.00 | 0.00 | 94 | 1010.3 |
| 20260506121901 | 22 | 81 | 0.0 | 3.2 | 0.00 | 0.00 | 0.00 | 94 | 1010.4 |
| 20260506121357 | 23 | 66 | 0.0 | 1.6 | 0.00 | 0.00 | 0.00 | 94 | 1010.4 |
| 20260506120854 | 23 | 195 | 0.0 | 0.0 | 0.00 | 0.00 | 0.00 | 94 | 1010.5 |
| 20260506120352 | 23 | 157 | 0.0 | 0.0 | 0.00 | 0.00 | 0.00 | 94 | 1010.5 |
| 20260506115849 | 23 | 157 | 0.0 | 0.0 | 0.00 | 0.00 | 0.00 | 94 | 1010.2 |
| 20260506115347 | 23 | 99 | 0.0 | 0.0 | 0.00 | 0.00 | 0.00 | 94 | 1010.0 |
| 20260506114845 | 23 | 180 | 0.0 | 1.6 | 0.00 | 0.00 | 0.00 | 94 | 1010.2 |
| 20260506114342 | 23 | 97 | 0.0 | 0.0 | 0.00 | 0.00 | 0.00 | 94 | 1010.2 |
| 20260506113841 | 23 | 123 | 3.2 | 3.2 | 0.00 | 0.00 | 0.00 | 94 | 1010.3 |
| 20260506113338 | 23 | 106 | 0.0 | 1.6 | 0.00 | 0.00 | 0.00 | 94 | 1010.1 |
| 20260506112834 | 23 | 99 | 0.0 | 1.6 | 0.00 | 0.00 | 0.00 | 93 | 1010.2 |
| 20260506112332 | 23 | 270 | 0.0 | 0.0 | 0.00 | 0.00 | 0.00 | 93 | 1010.1 |
| 20260506111829 | 23 | 180 | 0.0 | 0.0 | 0.00 | 0.00 | 0.00 | 93 | 1010.2 |
| 20260506111327 | 23 | 175 | 0.0 | 4.8 | 0.00 | 0.00 | 0.00 | 93 | 1010.0 |
| 20260506110824 | 23 | 172 | 0.0 | 3.2 | 0.00 | 0.00 | 0.00 | 93 | 1010.2 |
| 20260506110321 | 23 | 225 | 0.0 | 3.2 | 0.00 | 0.00 | 0.00 | 93 | 1010.2 |
| 20260506105818 | 23 | 195 | 0.0 | 1.6 | 0.00 | 0.00 | 0.00 | 93 | 1009.9 |
| 20260506105315 | 23 | 188 | 0.0 | 4.8 | 0.00 | 0.00 | 0.00 | 93 | 1010.1 |
| 20260506104812 | 23 | 270 | 0.0 | 0.0 | 0.00 | 0.00 | 0.00 | 93 | 1009.9 |
| 20260506104310 | 23 | 261 | 0.0 | 0.0 | 0.00 | 0.00 | 0.00 | 93 | 1009.9 |
| 20260506103807 | 23 | 186 | 0.0 | 6.4 | 0.00 | 0.00 | 0.00 | 93 | 1009.8 |
| 20260506103305 | 23 | 222 | 4.8 | 8.0 | 0.00 | 0.00 | 0.00 | 93 | 1009.7 |
| 20260506102802 | 23 | 215 | 1.6 | 9.7 | 0.00 | 0.00 | 0.00 | 94 | 1009.4 |
| 20260506102300 | 23 | 173 | 4.8 | 11.3 | 0.00 | 0.00 | 0.00 | 93 | 1009.7 |
| 20260506101757 | 23 | 135 | 0.0 | 6.4 | 0.00 | 0.00 | 0.00 | 93 | 1009.4 |
| 20260506101253 | 23 | 180 | 0.0 | 12.9 | 0.00 | 0.00 | 0.00 | 93 | 1009.7 |
| 20260506100751 | 23 | 97 | 1.6 | 12.9 | 0.00 | 0.00 | 0.00 | 93 | 1009.6 |
| 20260506100249 | 23 | 221 | 3.2 | 9.7 | 0.00 | 0.00 | 0.00 | 93 | 1009.5 |
| 20260506095747 | 23 | 246 | 0.0 | 6.4 | 0.00 | 0.00 | 0.00 | 93 | 1009.6 |
| 20260506095244 | 23 | 206 | 3.2 | 11.3 | 0.00 | 0.00 | 0.00 | 93 | 1009.4 |
| 20260506094740 | 23 | 218 | 4.8 | 8.0 | 0.00 | 0.00 | 0.00 | 93 | 1009.3 |
| 20260506094239 | 23 | 270 | 8.0 | 8.0 | 0.00 | 0.00 | 0.00 | 93 | 1009.5 |
| 20260506093737 | 23 | 227 | 11.3 | 12.9 | 0.00 | 0.00 | 0.00 | 93 | 1009.4 |
| 20260506093234 | 23 | 128 | 0.0 | 8.0 | 0.00 | 0.00 | 0.00 | 93 | 1009.4 |
| 20260506092732 | 23 | 156 | 8.0 | 16.1 | 0.00 | 0.00 | 0.00 | 93 | 1009.4 |
| 20260506092229 | 23 | 190 | 3.2 | 11.3 | 0.00 | 0.00 | 0.00 | 93 | 1009.2 |
| 20260506091726 | 23 | 229 | 6.4 | 14.5 | 0.00 | 0.00 | 0.00 | 93 | 1009.1 |
| 20260506091224 | 23 | 180 | 0.0 | 11.3 | 0.00 | 0.00 | 0.00 | 93 | 1009.1 |
| 20260506090722 | 23 | 222 | 0.0 | 14.5 | 0.00 | 0.00 | 0.00 | 93 | 1009.1 |
| 20260506090218 | 23 | 217 | 3.2 | 6.4 | 0.00 | 0.00 | 0.00 | 93 | 1009.0 |
| 20260506085715 | 23 | 254 | 3.2 | 12.9 | 0.00 | 0.00 | 0.00 | 93 | 1008.9 |
| 20260506085211 | 23 | 170 | 4.8 | 16.1 | 0.00 | 0.00 | 0.00 | 93 | 1008.8 |
| 20260506084708 | 23 | 241 | 4.8 | 14.5 | 0.00 | 0.00 | 0.00 | 93 | 1009.1 |
| 20260506084204 | 23 | 243 | 9.7 | 11.3 | 0.00 | 0.00 | 0.00 | 93 | 1009.0 |
| 20260506083701 | 23 | 162 | 1.6 | 12.9 | 0.00 | 0.00 | 0.00 | 94 | 1009.2 |
| 20260506083159 | 23 | 245 | 3.2 | 11.3 | 0.00 | 0.00 | 0.00 | 94 | 1009.0 |
| 20260506082656 | 23 | 180 | 6.4 | 12.9 | 0.00 | 0.00 | 0.00 | 93 | 1009.1 |
| 20260506082156 | 23 | 135 | 9.7 | 9.7 | 0.00 | 0.00 | 0.00 | 93 | 1009.0 |
| 20260506081655 | 23 | 185 | 4.8 | 9.7 | 0.00 | 0.00 | 0.00 | 93 | 1009.3 |
| 20260506081152 | 23 | 180 | 0.0 | 17.7 | 0.00 | 0.00 | 0.00 | 93 | 1009.1 |
| 20260506080650 | 23 | 229 | 14.5 | 16.1 | 0.00 | 0.00 | 0.00 | 93 | 1009.2 |
| 20260506080146 | 23 | 198 | 0.0 | 11.3 | 0.00 | 0.00 | 0.00 | 93 | 1009.2 |
| 20260506073130 | 23 | 99 | 0.0 | 12.9 | 0.00 | 0.00 | 0.00 | 92 | 1009.5 |
| 20260506072626 | 23 | 202 | 8.0 | 16.1 | 0.00 | 0.00 | 0.00 | 92 | 1009.4 |
| 20260506072125 | 23 | 117 | 4.8 | 12.9 | 0.00 | 0.00 | 0.00 | 92 | 1009.6 |
| 20260506071622 | 23 | 198 | 1.6 | 17.7 | 0.00 | 0.00 | 0.00 | 92 | 1009.6 |
| 20260506071120 | 23 | 156 | 12.9 | 12.9 | 0.00 | 0.00 | 0.00 | 92 | 1009.5 |
| 20260506070616 | 23 | 170 | 4.8 | 14.5 | 0.00 | 0.00 | 0.00 | 92 | 1009.5 |
| 20260506070114 | 23 | 236 | 4.8 | 17.7 | 0.00 | 0.00 | 0.00 | 92 | 1009.6 |
| 20260506062051 | 23 | 160 | 6.4 | 16.1 | 0.00 | 0.00 | 0.00 | 92 | 1009.6 |
| 20260506061546 | 23 | 209 | 0.0 | 12.9 | 0.00 | 0.00 | 0.00 | 92 | 1009.6 |
| 20260506061044 | 23 | 225 | 6.4 | 14.5 | 0.00 | 0.00 | 0.00 | 92 | 1009.4 |
| 20260506060543 | 23 | 159 | 8.0 | 16.1 | 0.00 | 0.00 | 0.00 | 92 | 1009.5 |
| 20260506051012 | 23 | 174 | 4.8 | 17.7 | 0.00 | 0.00 | 0.00 | 91 | 1009.5 |
| 20260506050509 | 23 | 192 | 6.4 | 20.9 | 0.00 | 0.00 | 0.00 | 91 | 1009.8 |
| 20260506045000 | 24 | 208 | 3.2 | 11.3 | 0.00 | 0.00 | 0.00 | 91 | 1009.8 |
| 20260506044458 | 24 | 200 | 8.0 | 12.9 | 0.00 | 0.00 | 0.00 | 91 | 1009.7 |
| 20260506043954 | 24 | 183 | 3.2 | 11.3 | 0.00 | 0.00 | 0.00 | 91 | 1009.4 |
| 20260506043451 | 23 | 191 | 4.8 | 17.7 | 0.00 | 0.00 | 0.00 | 91 | 1009.9 |
| 20260506042949 | 23 | 226 | 16.1 | 24.1 | 0.00 | 0.00 | 0.00 | 92 | 1009.5 |
| 20260506042448 | 24 | 119 | 4.8 | 16.1 | 0.00 | 0.00 | 0.00 | 92 | 1009.7 |
| 20260506041946 | 24 | 213 | 4.8 | 17.7 | 0.00 | 0.00 | 0.00 | 92 | 1009.7 |
| 20260506041444 | 24 | 140 | 6.4 | 11.3 | 0.00 | 0.00 | 0.00 | 92 | 1009.3 |
| 20260506040941 | 24 | 138 | 4.8 | 14.5 | 0.00 | 0.00 | 0.00 | 92 | 1009.6 |
| 20260506040438 | 24 | 186 | 6.4 | 6.4 | 0.00 | 0.00 | 0.00 | 91 | 1009.3 |
| 20260506035934 | 24 | 180 | 1.6 | 8.0 | 0.00 | 0.00 | 0.00 | 92 | 1009.4 |
| 20260506035432 | 24 | 179 | 8.0 | 9.7 | 0.00 | 0.00 | 0.00 | 92 | 1009.3 |
| 20260506034928 | 24 | 200 | 4.8 | 6.4 | 0.00 | 0.00 | 0.00 | 91 | 1009.2 |
| 20260506034426 | 24 | 240 | 0.0 | 8.0 | 0.00 | 0.00 | 0.00 | 91 | 1009.1 |
| 20260506033923 | 24 | 178 | 6.4 | 6.4 | 0.00 | 0.00 | 0.00 | 91 | 1009.3 |
| 20260506033420 | 24 | 225 | 8.0 | 9.7 | 0.00 | 0.00 | 0.00 | 91 | 1009.0 |
| 20260506032917 | 24 | 165 | 4.8 | 6.4 | 0.00 | 0.00 | 0.00 | 91 | 1009.0 |
| 20260506032414 | 24 | 261 | 0.0 | 4.8 | 0.00 | 0.00 | 0.00 | 91 | 1008.9 |
| 20260506031910 | 24 | 208 | 4.8 | 11.3 | 0.00 | 0.00 | 0.00 | 91 | 1008.8 |
| 20260506031408 | 24 | 255 | 1.6 | 8.0 | 0.00 | 0.00 | 0.00 | 90 | 1008.8 |
| 20260506030905 | 24 | 203 | 11.3 | 11.3 | 0.00 | 0.00 | 0.00 | 90 | 1008.7 |
| 20260506030403 | 24 | 119 | 9.7 | 9.7 | 0.00 | 0.00 | 0.00 | 90 | 1008.6 |
| 20260506025859 | 24 | 201 | 4.8 | 9.7 | 0.00 | 0.00 | 0.00 | 89 | 1008.6 |
| 20260506025356 | 25 | 262 | 0.0 | 11.3 | 0.00 | 0.00 | 0.00 | 89 | 1008.5 |
| 20260506024853 | 25 | 176 | 0.0 | 12.9 | 0.00 | 0.00 | 0.00 | 89 | 1008.5 |
| 20260506024350 | 25 | 174 | 1.6 | 11.3 | 0.00 | 0.00 | 0.00 | 89 | 1008.5 |
| 20260506023846 | 25 | 219 | 0.0 | 11.3 | 0.00 | 0.00 | 0.00 | 88 | 1008.3 |
| 20260506023343 | 25 | 180 | 4.8 | 11.3 | 0.00 | 0.00 | 0.00 | 87 | 1008.3 |
| 20260506022840 | 25 | 194 | 4.8 | 11.3 | 0.00 | 0.00 | 0.00 | 87 | 1008.2 |
| 20260506022338 | 25 | 174 | 4.8 | 8.0 | 0.00 | 0.00 | 0.00 | 87 | 1008.0 |
| 20260506021836 | 25 | 180 | 3.2 | 3.2 | 0.00 | 0.00 | 0.00 | 87 | 1008.0 |
| 20260506021332 | 25 | 187 | 1.6 | 6.4 | 0.00 | 0.00 | 0.00 | 86 | 1007.9 |
| 20260506020829 | 25 | 220 | 3.2 | 4.8 | 0.00 | 0.00 | 0.00 | 86 | 1007.6 |
| 20260506020327 | 25 | 229 | 4.8 | 11.3 | 0.00 | 0.00 | 0.00 | 86 | 1007.7 |
| 20260506015824 | 25 | 225 | 6.4 | 6.4 | 0.00 | 0.00 | 0.00 | 86 | 1007.7 |
| 20260506015321 | 25 | 173 | 0.0 | 6.4 | 0.00 | 0.00 | 0.00 | 86 | 1007.7 |
| 20260506014818 | 25 | 228 | 3.2 | 8.0 | 0.00 | 0.00 | 0.00 | 86 | 1007.6 |
| 20260506014315 | 25 | 157 | 0.0 | 8.0 | 0.00 | 0.00 | 0.00 | 86 | 1007.4 |
| 20260506013812 | 25 | 90 | 1.6 | 3.2 | 0.00 | 0.00 | 0.00 | 86 | 1007.3 |
| 20260506013309 | 25 | 212 | 0.0 | 3.2 | 0.00 | 0.00 | 0.00 | 85 | 1007.3 |
| 20260506012805 | 25 | 113 | 3.2 | 4.8 | 0.00 | 0.00 | 0.00 | 85 | 1007.2 |
| 20260506012307 | 25 | 106 | 0.0 | 3.2 | 0.00 | 0.00 | 0.00 | 85 | 1007.3 |
| 20260506011759 | 26 | 90 | 0.0 | 3.2 | 0.00 | 0.00 | 0.00 | 84 | 1007.5 |
| 20260506011256 | 26 | 165 | 0.0 | 4.8 | 0.00 | 0.00 | 0.00 | 83 | 1007.3 |
| 20260506010754 | 26 | 106 | 0.0 | 1.6 | 0.00 | 0.00 | 0.00 | 83 | 1007.5 |
| 20260506010251 | 26 | 187 | 1.6 | 3.2 | 0.00 | 0.00 | 0.00 | 82 | 1007.5 |
| 20260506005748 | 26 | 105 | 3.2 | 4.8 | 0.00 | 0.00 | 0.00 | 82 | 1007.4 |
| 20260506005245 | 26 | 246 | 1.6 | 4.8 | 0.00 | 0.00 | 0.00 | 81 | 1007.7 |
| 20260506004741 | 26 | 187 | 3.2 | 3.2 | 0.00 | 0.00 | 0.00 | 80 | 1007.6 |
| 20260506004239 | 27 | 203 | 0.0 | 3.2 | 0.00 | 0.00 | 0.00 | 80 | 1007.4 |
| 20260506003734 | 27 | 265 | 0.0 | 4.8 | 0.00 | 0.00 | 0.00 | 79 | 1007.5 |
| 20260506003231 | 27 | 155 | 4.8 | 4.8 | 0.00 | 0.00 | 0.00 | 79 | 1007.4 |
| 20260506002727 | 27 | 168 | 0.0 | 9.7 | 0.00 | 0.00 | 0.00 | 78 | 1007.3 |
| 20260506002223 | 27 | 175 | 3.2 | 4.8 | 0.00 | 0.00 | 0.00 | 78 | 1007.3 |
| 20260506001719 | 27 | 206 | 1.6 | 4.8 | 0.00 | 0.00 | 0.00 | 78 | 1007.3 |
| 20260506001217 | 27 | 194 | 0.0 | 9.7 | 0.00 | 0.00 | 0.00 | 78 | 1007.3 |
| 20260506000714 | 27 | 127 | 0.0 | 6.4 | 0.00 | 0.00 | 0.00 | 78 | 1007.4 |
| 20260506000212 | 27 | 253 | 3.2 | 6.4 | 0.00 | 0.00 | 0.00 | 78 | 1007.2 |
| 20260505235709 | 27 | 160 | 1.6 | 6.4 | 0.00 | 0.00 | 0.00 | 77 | 1007.3 |
| 20260505235206 | 27 | 150 | 4.8 | 8.0 | 0.00 | 0.00 | 0.00 | 76 | 1007.2 |
| 20260505234703 | 28 | 262 | 0.0 | 6.4 | 0.00 | 0.00 | 0.00 | 76 | 1007.0 |
| 20260505234200 | 27 | 206 | 3.2 | 9.7 | 0.00 | 0.00 | 0.00 | 74 | 1007.0 |
| 20260505233656 | 28 | 157 | 1.6 | 12.9 | 0.00 | 0.00 | 0.00 | 75 | 1007.0 |
| 20260505233154 | 28 | 233 | 6.4 | 9.7 | 0.00 | 0.00 | 0.00 | 74 | 1006.7 |
| 20260505232652 | 28 | 180 | 0.0 | 11.3 | 0.00 | 0.00 | 0.00 | 74 | 1007.1 |
| 20260505232149 | 28 | 156 | 3.2 | 9.7 | 0.00 | 0.00 | 0.00 | 74 | 1006.9 |
| 20260505231646 | 27 | 180 | 1.6 | 14.5 | 0.00 | 0.00 | 0.00 | 76 | 1007.0 |
| 20260505231145 | 27 | 238 | 8.0 | 9.7 | 0.00 | 0.00 | 0.00 | 75 | 1007.0 |
| 20260505230642 | 27 | 237 | 6.4 | 17.7 | 0.00 | 0.00 | 0.00 | 74 | 1007.1 |
| 20260505230139 | 27 | 218 | 8.0 | 8.0 | 0.00 | 0.00 | 0.00 | 75 | 1006.8 |
| 20260505225635 | 27 | 219 | 11.3 | 12.9 | 0.00 | 0.00 | 0.00 | 75 | 1007.0 |
| 20260505225131 | 27 | 232 | 0.0 | 14.5 | 0.00 | 0.00 | 0.00 | 75 | 1007.0 |
| 20260505224628 | 27 | 206 | 6.4 | 14.5 | 0.00 | 0.00 | 0.00 | 75 | 1007.1 |
| 20260505224125 | 27 | 213 | 0.0 | 12.9 | 0.00 | 0.00 | 0.00 | 75 | 1007.0 |
| 20260505223623 | 27 | 214 | 6.4 | 17.7 | 0.00 | 0.00 | 0.00 | 75 | 1007.1 |
| 20260505223119 | 28 | 228 | 11.3 | 19.3 | 0.00 | 0.00 | 0.00 | 73 | 1006.9 |
| 20260505222615 | 28 | 180 | 3.2 | 9.7 | 0.00 | 0.00 | 0.00 | 73 | 1007.0 |
| 20260505222111 | 28 | 230 | 8.0 | 16.1 | 0.00 | 0.00 | 0.00 | 73 | 1006.8 |
| 20260505221608 | 28 | 265 | 0.0 | 12.9 | 0.00 | 0.00 | 0.00 | 73 | 1006.8 |
| 20260505221105 | 28 | 184 | 6.4 | 17.7 | 0.00 | 0.00 | 0.00 | 71 | 1006.7 |
| 20260505220602 | 28 | 203 | 11.3 | 17.7 | 0.00 | 0.00 | 0.00 | 71 | 1006.8 |
| 20260505220100 | 28 | 188 | 1.6 | 14.5 | 0.00 | 0.00 | 0.00 | 72 | 1007.0 |
| 20260505215558 | 28 | 211 | 9.7 | 9.7 | 0.00 | 0.00 | 0.00 | 72 | 1007.2 |
| 20260505215055 | 28 | 237 | 8.0 | 16.1 | 0.00 | 0.00 | 0.00 | 72 | 1007.1 |
| 20260505214554 | 28 | 202 | 0.0 | 14.5 | 0.00 | 0.00 | 0.00 | 71 | 1007.0 |
| 20260505214050 | 28 | 221 | 9.7 | 11.3 | 0.00 | 0.00 | 0.00 | 72 | 1007.3 |
| 20260505213548 | 28 | 185 | 3.2 | 11.3 | 0.00 | 0.00 | 0.00 | 70 | 1007.4 |
| 20260505213044 | 28 | 157 | 4.8 | 16.1 | 0.00 | 0.00 | 0.00 | 71 | 1007.4 |
| 20260505212540 | 28 | 220 | 0.0 | 16.1 | 0.00 | 0.00 | 0.00 | 73 | 1007.4 |
| 20260505212038 | 29 | 202 | 12.9 | 17.7 | 0.00 | 0.00 | 0.00 | 69 | 1007.4 |
| 20260505211535 | 28 | 262 | 0.0 | 14.5 | 0.00 | 0.00 | 0.00 | 73 | 1007.4 |
| 20260505211031 | 28 | 203 | 11.3 | 17.7 | 0.00 | 0.00 | 0.00 | 70 | 1007.5 |
| 20260505210528 | 28 | 208 | 6.4 | 16.1 | 0.00 | 0.00 | 0.00 | 70 | 1007.4 |
| 20260505210026 | 28 | 180 | 8.0 | 12.9 | 0.00 | 0.00 | 0.00 | 73 | 1007.6 |
| 20260505205523 | 28 | 180 | 1.6 | 17.7 | 0.00 | 0.00 | 0.00 | 74 | 1008.0 |
| 20260505205020 | 28 | 151 | 4.8 | 16.1 | 0.00 | 0.00 | 0.00 | 73 | 1007.9 |
| 20260505204518 | 29 | 255 | 1.6 | 19.3 | 0.00 | 0.00 | 0.00 | 71 | 1007.9 |
| 20260505204015 | 28 | 235 | 8.0 | 20.9 | 0.00 | 0.00 | 0.00 | 73 | 1008.3 |
| 20260505203511 | 28 | 292 | 3.2 | 9.7 | 0.00 | 0.00 | 0.00 | 73 | 1008.1 |
| 20260505203008 | 28 | 226 | 9.7 | 17.7 | 0.00 | 0.00 | 0.00 | 71 | 1008.3 |
| 20260505202505 | 28 | 191 | 9.7 | 11.3 | 0.00 | 0.00 | 0.00 | 72 | 1008.5 |
| 20260505202000 | 29 | 194 | 8.0 | 14.5 | 0.00 | 0.00 | 0.00 | 74 | 1008.3 |
| 20260505201458 | 28 | 225 | 8.0 | 14.5 | 0.00 | 0.00 | 0.00 | 74 | 1008.5 |
| 20260505200955 | 28 | 173 | 3.2 | 14.5 | 0.00 | 0.00 | 0.00 | 74 | 1008.7 |
| 20260505200453 | 27 | 270 | 3.2 | 12.9 | 0.00 | 0.00 | 0.00 | 73 | 1008.6 |
| 20260505195948 | 28 | 205 | 6.4 | 9.7 | 0.00 | 0.00 | 0.00 | 72 | 1008.6 |
| 20260505195446 | 28 | 149 | 4.8 | 11.3 | 0.00 | 0.00 | 0.00 | 73 | 1008.6 |
| 20260505194943 | 28 | 157 | 1.6 | 19.3 | 0.00 | 0.00 | 0.00 | 73 | 1008.7 |
| 20260505194441 | 27 | 217 | 12.9 | 25.7 | 0.00 | 0.00 | 0.00 | 73 | 1008.7 |
| 20260505193940 | 28 | 101 | 3.2 | 12.9 | 0.00 | 0.00 | 0.00 | 74 | 1008.8 |
| 20260505193438 | 28 | 215 | 11.3 | 11.3 | 0.00 | 0.00 | 0.00 | 73 | 1008.9 |
| 20260505192936 | 27 | 225 | 6.4 | 14.5 | 0.00 | 0.00 | 0.00 | 74 | 1008.9 |
| 20260505192434 | 28 | 240 | 1.6 | 20.9 | 0.00 | 0.00 | 0.00 | 75 | 1008.7 |
| 20260505191931 | 28 | 212 | 4.8 | 19.3 | 0.00 | 0.00 | 0.00 | 74 | 1008.9 |
| 20260505191430 | 28 | 174 | 6.4 | 11.3 | 0.00 | 0.00 | 0.00 | 73 | 1009.0 |
| 20260505190926 | 28 | 125 | 4.8 | 8.0 | 0.00 | 0.00 | 0.00 | 72 | 1009.1 |
| 20260505190421 | 27 | 253 | 4.8 | 11.3 | 0.00 | 0.00 | 0.00 | 75 | 1008.9 |
| 20260505185917 | 27 | 210 | 3.2 | 11.3 | 0.00 | 0.00 | 0.00 | 75 | 1009.1 |
| 20260505185414 | 27 | 246 | 6.4 | 14.5 | 0.00 | 0.00 | 0.00 | 77 | 1009.1 |
| 20260505184910 | 27 | 249 | 6.4 | 14.5 | 0.00 | 0.00 | 0.00 | 77 | 1009.3 |
| 20260505184407 | 26 | 236 | 12.9 | 19.3 | 0.00 | 0.00 | 0.00 | 76 | 1009.3 |
| 20260505183904 | 27 | 169 | 4.8 | 24.1 | 0.00 | 0.00 | 0.00 | 78 | 1009.2 |
| 20260505183401 | 26 | 237 | 4.8 | 9.7 | 0.00 | 0.00 | 0.00 | 79 | 1009.3 |
| 20260505182858 | 26 | 222 | 4.8 | 14.5 | 0.00 | 0.00 | 0.00 | 78 | 1009.3 |
| 20260505182355 | 26 | 296 | 4.8 | 9.7 | 0.00 | 0.00 | 0.00 | 78 | 1009.5 |
| 20260505181851 | 26 | 192 | 8.0 | 22.5 | 0.00 | 0.00 | 0.00 | 78 | 1009.6 |
| 20260505181349 | 26 | 242 | 12.9 | 14.5 | 0.00 | 0.00 | 0.00 | 79 | 1009.5 |
| 20260505180845 | 26 | 218 | 8.0 | 17.7 | 0.00 | 0.00 | 0.00 | 80 | 1009.5 |
| 20260505180341 | 25 | 203 | 11.3 | 16.1 | 0.00 | 0.00 | 0.00 | 79 | 1010.0 |
| 20260505175838 | 25 | 212 | 4.8 | 12.9 | 0.00 | 0.00 | 0.00 | 82 | 1009.7 |
| 20260505175334 | 25 | 183 | 4.8 | 16.1 | 0.00 | 0.00 | 0.00 | 82 | 1009.6 |
| 20260505174831 | 25 | 180 | 0.0 | 17.7 | 0.00 | 0.00 | 0.00 | 83 | 1010.0 |
| 20260505174329 | 25 | 215 | 6.4 | 11.3 | 0.00 | 0.00 | 0.00 | 83 | 1009.9 |
| 20260505173824 | 25 | 219 | 6.4 | 9.7 | 0.00 | 0.00 | 0.00 | 84 | 1009.8 |
| 20260505173321 | 24 | 223 | 6.4 | 17.7 | 0.00 | 0.00 | 0.00 | 85 | 1010.2 |
| 20260505172819 | 24 | 230 | 4.8 | 8.0 | 0.00 | 0.00 | 0.00 | 85 | 1010.3 |
| 20260505172316 | 24 | 201 | 3.2 | 4.8 | 0.00 | 0.00 | 0.00 | 86 | 1010.2 |
| 20260505171815 | 23 | 231 | 8.0 | 14.5 | 0.00 | 0.00 | 0.00 | 87 | 1010.2 |
| 20260505171313 | 23 | 231 | 9.7 | 16.1 | 0.00 | 0.00 | 0.00 | 87 | 1010.0 |
| 20260505170809 | 23 | 216 | 3.2 | 6.4 | 0.00 | 0.00 | 0.00 | 86 | 1010.3 |
| 20260505170306 | 23 | 180 | 1.6 | 14.5 | 0.00 | 0.00 | 0.00 | 88 | 1010.2 |
| 20260505165801 | 23 | 233 | 3.2 | 17.7 | 0.00 | 0.00 | 0.00 | 88 | 1010.4 |
| 20260505165257 | 23 | 242 | 4.8 | 11.3 | 0.00 | 0.00 | 0.00 | 88 | 1010.2 |
| 20260505164753 | 23 | 207 | 4.8 | 19.3 | 0.00 | 0.00 | 0.00 | 88 | 1010.3 |
| 20260505164250 | 22 | 212 | 8.0 | 14.5 | 0.00 | 0.00 | 0.00 | 88 | 1010.0 |
| 20260505163749 | 22 | 212 | 8.0 | 12.9 | 0.00 | 0.00 | 0.00 | 88 | 1010.0 |
| 20260505163247 | 22 | 222 | 14.5 | 17.7 | 0.00 | 0.00 | 0.00 | 89 | 1010.3 |
| 20260505162744 | 22 | 210 | 6.4 | 9.7 | 0.00 | 0.00 | 0.00 | 89 | 1009.9 |
| 20260505162241 | 22 | 233 | 4.8 | 11.3 | 0.00 | 0.00 | 0.00 | 90 | 1010.2 |
| 20260505161738 | 22 | 187 | 3.2 | 8.0 | 0.00 | 0.00 | 0.00 | 90 | 1010.3 |
| 20260505161235 | 22 | 202 | 8.0 | 11.3 | 0.00 | 0.00 | 0.00 | 90 | 1010.5 |
| 20260505160732 | 22 | 231 | 8.0 | 9.7 | 0.00 | 0.00 | 0.00 | 91 | 1010.3 |
| 20260505160230 | 22 | 204 | 11.3 | 17.7 | 0.00 | 0.00 | 0.00 | 90 | 1010.5 |
| 20260505153209 | 22 | 237 | 3.2 | 6.4 | 0.00 | 0.00 | 0.00 | 92 | 1010.3 |
| 20260505152706 | 21 | 221 | 6.4 | 17.7 | 0.00 | 0.00 | 0.00 | 92 | 1010.2 |
| 20260505152202 | 21 | 219 | 11.3 | 14.5 | 0.00 | 0.00 | 0.00 | 92 | 1010.0 |
| 20260505151657 | 21 | 208 | 4.8 | 16.1 | 0.00 | 0.00 | 0.00 | 93 | 1010.0 |
| 20260505151155 | 21 | 149 | 6.4 | 11.3 | 0.00 | 0.00 | 0.00 | 93 | 1010.1 |
| 20260505150651 | 21 | 194 | 8.0 | 16.1 | 0.00 | 0.00 | 0.00 | 93 | 1010.0 |
| 20260505150149 | 21 | 168 | 8.0 | 14.5 | 0.00 | 0.00 | 0.00 | 93 | 1010.0 |
| 20260505140617 | 21 | 227 | 8.0 | 14.5 | 0.00 | 0.00 | 0.00 | 93 | 1009.7 |